Location: Sluknov
(51.0170°N, 14.4670°E)
Time: 10:39:13
(UTC+01:00)

ARIANE 6 FM1 Upper Stage - Pass Details

Date: 17 February 2026
Orbit: 523 x 607 km, 62.0° (Epoch: 7 March)

Event Time Altitude Azimuth Distance (km) Brightness Sun altitude
Rises 20:16:52 0° 298° (WNW) 2,658 7.3 -27.9°
Reaches altitude 10° 20:20:17 10° 267° (W) 1,767 6.0 -28.4°
Maximum altitude 20:21:47 12° 244° (WSW) 1,647 5.6 -28.7°
Drops below altitude 10° 20:23:18 10° 221° (SW) 1,769 5.4 -28.9°
Enters shadow 20:23:21 10° 221° (SW) 1,775 5.4 -28.9°
